Simultaneous Nadir Overpasses (SNOs) Predictions

Prediction of SNOs between FY3D and NOAA-19 Satellite Orbit:

Table of predicted SNOs for the next 14.0 days since TLE Epoch: 5/30/2020
Index Date (FY3D) Time (FY3D) Lat,Lon (FY3D) SZA (FY3D ) Date (NOAA-19) Time (NOAA-19) Lat,Lon (NOAA-19) SZA (NOAA-19 ) Distance(km) Time Diff (sec)
1 05/31/2020 19:44:20 79.10,-146.21 58.54 05/31/2020 19:43:18 79.12,-150.91 59.09 98.89 62
2 05/31/2020 20:35:12 -79.39, 18.97 121.02 05/31/2020 20:34:07 -79.41, 18.88 120.96 2.91 65
3 05/31/2020 21:25:58 79.41,-173.91 59.02 05/31/2020 21:25:09 79.42,-173.79 59.04 2.55 49
4 05/31/2020 22:16:42 -79.42, -6.65 120.98 05/31/2020 22:16:08 -79.40, -6.73 120.97 3.11 34
5 05/31/2020 23:07:27 79.41, 160.74 59.01 05/31/2020 23:07:10 79.41, 160.60 59.03 2.88 17
6 05/31/2020 23:58:11 -79.42, -32.00 120.99 05/31/2020 23:58:08 -79.41, -32.06 120.98 1.31 3
7 06/01/2020 00:48:56 79.41, 135.39 59.00 06/01/2020 00:49:10 79.42, 135.27 59.02 2.97 14
8 06/01/2020 01:39:40 -79.41, -57.35 121.00 06/01/2020 01:40:08 -79.43, -57.39 121.00 2.07 28
9 06/01/2020 02:30:26 79.44, 109.76 59.04 06/01/2020 02:31:10 79.44, 109.94 59.00 3.50 44
10 06/01/2020 03:21:10 -79.44, -82.97 120.96 06/01/2020 03:22:09 -79.42, -83.00 121.00 2.81 59




NCC Satellite Simultaneous Nadir Overpasses (SNOs) Prediction Service
